Regional Weather Roundup
Issued by NWS Newport/Morehead, NC

Current Version | Previous Version | Text Only | Print | Product List | Glossary On
Versions: 1 2 3 4 5 6 7 8 9 10 11 12 13 14 15 16 17 18 19 20 21 22 23 24 25 26 27 28 29 30 31 32 33 34 35 36 37 38 39 40 41 42 43 44 45 46 47 48 49 50
302 ASUS42 KMHX 201725 RWRMHX WEATHER ROUNDUP FOR EASTERN NORTH CAROLINA NATIONAL WEATHER SERVICE NEWPORT/MOREHEAD CITY NC 1200 PM EST FRI JAN 20 2017 NOTE: "FAIR" INDICATES FEW OR NO CLOUDS BELOW 12,000 FEET WITH NO SIGNIFICANT WEATHER AND/OR OBSTRUCTIONS TO VISIBILITY NCZ015>017-031-032-045>047-102-103-201800- NORTH COAST CITY SKY/WX TMP DP RH WIND PRES REMARKS EDENTON DRIZZLE 55 46 72 CALM 29.92F ELIZABETH CITY CLOUDY 54 43 66 SE10 29.92F KITTY HAWK NOT AVBL MANTEO CLOUDY 53 46 75 SE7 29.92F $$ NCZ045>047-081-094-103-104-201800- CENTRAL COAST CITY SKY/WX TMP DP RH WIND PRES REMARKS FRISCO CLOUDY 66 54 65 E7 29.91F HAZE $$ NCZ095-097-098-100-101-201800- SOUTHERN COAST CITY SKY/WX TMP DP RH WIND PRES REMARKS BEAUFORT CLOUDY 71 60 68 SE10 29.88F CEDAR ISLAND NOT AVBL JACKSONVILLE NOT AVBL PINEY ISLAND CLOUDY N/A N/A N/A E5 29.89F WILMINGTON CLOUDY 68 60 75 S5 29.88F $$ NCZ011>013-027>030-043-044-078>080-089-090>093-098-201800- COASTAL PLAIN CITY SKY/WX TMP DP RH WIND PRES REMARKS AHOSKIE N/A 47 46 97 CALM 29.91F FOG CLINTON PTSUNNY 64 56 77 S5 29.88F ELIZABETHTOWN PTSUNNY 67 57 70 S5 29.87F GOLDSBORO MOSUNNY 63 56 79 S7 29.86F GREENVILLE CLOUDY 54 52 94 SE5 29.91F HAVELOCK CLOUDY 67 57 70 SE7 29.90F KENANSVILLE CLOUDY 61 54 77 S3 29.88F KINSTON MOSUNNY 59 52 77 SE7 29.89F NEW BERN CLOUDY 59 51 75 SE3 29.91F RICHLANDS CLOUDY 61 55 81 VRB3 29.88F ROCKY MOUNT LGT RAIN 51 50 96 CALM 29.90F WASHINGTON CLOUDY 55 48 78 SE6 N/A WHITEVILLE MOSUNNY 69 58 66 S6 29.88F $$ AMZ130-135-150-152-154-156-158-170-250-252-270-ANZ085-086-088-633-658-670-201800- MARINE OBSERVATIONS STATION/POSITION TIME TEMP WIND PRES WAVE SWELL AIR SEA DIR/SP/G HT/PER HT/PER (UTC) (F) (DEG/KT/KT) (MB) (FT/S) (FT/S) CHESAPEAKE LIGHT NOT AVBL 64 E VA BEACH 1650 54 57 80/ 4/ 6 1013.4 5/13 5/13 DUCK 1700 48 45 110/ 9/ 9 1012.8 2 E DUCK 1700 45 N/A 4/13 3/13 OREGON INLET 1700 51 49 70/ 5/ 8 1012.8 13E OREGON INLT NOT AVBL HATTERAS CG 1700 62 54 90/ 6/ 7 1012.3 DIAMOND BUOY 1650 68 76 170/ 14/ 16 1012.4 5/12 5/12 CAPE LOOKOUT 1700 66 150/ 7/ 8 1011.8 BEAUFORT LAB 1700 67 50 150/ 7/ 9 1010.8 30 SE NEW RVR IN 1708 66 65 220/ 8/ 12 1011.8 30 SE NEW RVR IN 1643 65 N/A 4/12 2/12 27 SE WRIGHTSVLE 1708 70 71 230/ 12/ 16 1011.5 5 SE WRIGHTSVLE 1708 55 340/ 2/ 4 1011.8 225 S CAPE HAT 1650 69 71 150/ 14/ 16 1014.6 6/12 5/12 41 SE CHARLESTON 1650 71 71 230/ 16/ 19 1012.1 2/ 7 2/ 7 $$

USA.gov is the U.S. government's official web portal to all federal, state and local government web resources and services.